Location: Powder Track
(41.8531°N, 72.3584°W)
Time: 23:36:23
(UTC+00:00)

Vanguard 2 Rocket - Pass Details

Date: 04 August 2021
Orbit: 556 x 3324 km, 32.9° (Epoch: 22 September)

Event Time Altitude Azimuth Distance (km) Brightness Sun altitude
Rises 15:50:03 0° 254° (WSW) 2,809 9.3 61.5°
Reaches altitude 10° 15:53:07 10° 227° (SW) 2,082 9.0 61.8°
Maximum altitude 15:55:33 14° 195° (SSW) 2,013 9.2 62.1°
Drops below altitude 10° 15:58:26 10° 165° (SSE) 2,552 9.8 62.3°
Sets 16:03:01 0° 142° (SE) 4,013 10.6 62.8°
